Location: Bouchavesnes-Bergen
(49.9859°N, 2.9203°E)
Time: 04:02:06
(UTC+00:00)

CZ-4C R/B - Visible Passes

Search period start: 06 October 2022 00:00
Search period end: 16 October 2022 00:00
Orbit: 574 x 1426 km, 63.4° (Epoch: 05 October)

Date Brightness Start Highest point End Pass type
(mag) Time Alt. Az. Time Alt. Az. Time Alt. Az.
11 Oct 4.6 04:50:53 10° SSE 04:54:12 19° ESE 04:57:55 10° ENE visible
12 Oct 3.4 05:22:20 10° S 05:26:47 41° ESE 05:32:09 10° NE visible
13 Oct 4.6 04:09:49 10° SE 04:12:31 15° ESE 04:15:28 10° ENE visible
14 Oct 3.7 04:40:46 10° S 04:45:01 34° ESE 04:50:05 10° NE visible
15 Oct 4.8 03:29:12 10° SE 03:30:52 12° ESE 03:32:38 10° E visible
15 Oct 2.3 05:13:07 10° SSW 05:17:53 72° SE 05:23:49 10° NE visible
